Location: Orange Harbor Mobile Home Park
(26.6923°N, 81.7937°W)
Time: 22:46:30
(UTC+00:00)

ALOS - Pass Details

Date: 19 September 2020
Orbit: 683 x 685 km, 97.9° (Epoch: 25 October)

Event Time Altitude Azimuth Distance (km) Brightness Sun altitude
Rises 10:19:44 0° 4° (N) 3,045 5.8 -13.0°
Reaches altitude 10° 10:22:02 10° 359° (N) 2,127 4.9 -12.5°
Maximum altitude 10:26:31 50° 285° (WNW) 863 2.4 -11.5°
Drops below altitude 10° 10:31:00 10° 210° (SSW) 2,117 4.5 -10.6°
Sets 10:33:17 0° 205° (SSW) 3,029 5.3 -10.0°
